Temperature
15 16 16 16 16 15 15 14 14 14 14 15 14 14 14 15 15 15 15 15 15 15 14 14 14 14 13 13 13 13 13 13 13 12 12 12 12 12 12 12 12 12 11 11
15 16 15 15 15 15 15 15 14 14 14 14 14 14 14 14 14 14 14 14 14 14 14 14 14 13 13 13 13 13 13 13 12 12 12 12 11 11 11 11 11 11 11 11
14 14 15 14 15 15 15 15 15 14 15 14 13 13 13 14 14 14 14 14 14 14 14 14 14 13 13 13 13 12 12 12 12 12 12 11 11 11 11 11 11 11 11 11
12 14 15 15 15 15 15 15 14 14 14 13 14 14 14 14 14 14 14 14 14 14 14 14 13 13 13 12 12 12 12 12 12 11 11 11 11 11 11 11 11 11 11 11
12 13 13 14 14 14 14 14 13 13 13 13 13 13 13 14 14 14 14 14 14 13 13 13 13 13 12 12 12 12 12 11 11 11 11 11 11 11 11 11 10 10 10 10
11 13 13 14 15 15 15 14 13 13 12 12 12 11 12 14 14 14 14 14 13 13 13 13 13 12 12 12 12 11 11 11 11 11 11 11 11 11 10 10 10 10 10 10
11 12 12 13 14 14 14 14 14 13 13 12 12 12 13 13 14 14 13 13 13 13 13 12 12 12 12 11 11 11 11 11 11 11 10 10 10 10 10 10 10 10 10 10
10 12 12 13 13 13 13 14 14 14 13 13 13 13 13 13 13 13 13 13 13 12 12 12 12 11 11 11 11 11 11 11 10 10 10 10 10 10 9 9 9 9 9 9
10 12 12 12 13 14 14 14 14 14 13 13 13 13 13 12 12 12 12 12 12 12 12 12 11 11 11 11 11 11 10 10 10 10 10 9 9 9 9 9 9 9 9 9
9 10 11 12 13 13 13 14 14 13 13 13 13 13 12 12 12 12 12 12 12 12 12 11 11 11 11 11 10 10 10 10 10 9 9 9 9 9 9 9 9 8 8 8
9 10 11 12 13 13 13 13 13 13 13 13 13 12 12 12 11 11 11 11 11 11 11 11 11 10 10 10 10 10 10 9 9 9 9 9 8 8 8 8 8 8 8 7
10 11 10 11 13 13 12 12 12 12 12 12 12 12 12 11 11 11 11 11 11 11 10 10 10 10 10 10 9 9 9 9 9 8 8 8 8 8 7 7 7 7 7 7
12 12 12 12 12 12 12 12 12 12 12 12 12 12 11 11 11 10 10 10 10 10 10 10 9 9 9 9 9 9 9 8 8 8 8 8 7 7 7 7 6 6 6 6
12 12 11 11 11 11 11 11 11 11 11 11 11 11 11 10 10 10 10 9 9 9 9 9 9 9 9 8 8 8 8 8 8 7 7 7 7 6 6 6 6 6 6 5
11 11 11 11 11 11 11 11 11 10 10 10 10 10 10 10 9 9 9 9 9 8 8 8 8 8 8 8 8 8 7 7 7 7 6 6 6 6 5 5 5 5 5 5
10 11 10 10 10 10 10 10 10 10 10 9 9 9 9 9 9 8 8 8 8 8 8 7 7 7 7 7 7 7 7 6 6 6 6 6 5 5 5 4 4 4 4 4
10 9 10 9 9 9 9 9 9 9 9 9 9 9 8 8 8 8 7 7 7 7 7 7 7 6 6 6 6 6 6 6 5 5 5 5 5 4 4 4 4 4 3 3
10 10 10 10 10 9 9 9 9 9 9 8 8 8 7 7 7 7 7 6 6 6 6 6 6 6 6 6 5 5 5 5 5 5 5 4 4 4 4 3 3 3 3 3
10 10 10 9 9 9 9 9 8 8 8 8 8 7 7 7 6 6 6 6 6 6 5 5 5 5 5 5 5 5 4 4 4 4 4 4 3 3 3 3 2 2 2 2
9 9 9 9 9 9 8 8 8 8 8 7 7 7 6 6 6 6 5 5 5 5 5 5 5 5 5 4 4 4 4 3 3 3 3 3 3 2 2 2 2 2 2 2
9 9 9 8 8 8 8 8 7 7 7 7 6 6 6 6 5 5 5 5 5 4 4 4 4 4 4 4 4 3 3 3 3 2 2 2 2 2 2 2 2 2 2 1
8 8 8 8 8 8 7 7 7 7 6 6 6 6 5 5 5 5 5 4 4 4 4 4 3 3 3 3 3 3 3 2 2 2 2 1 1 1 1 1 1 1 1 1
7 7 7 7 7 7 7 7 6 6 6 6 6 5 5 5 5 4 4 4 4 3 3 3 3 3 3 2 2 2 2 2 2 1 1 1 1 1 1 1 1 1 1 1
7 7 7 7 7 6 6 6 6 6 5 5 5 5 5 4 4 4 4 4 3 3 3 3 3 2 2 2 2 2 1 1 1 1 1 1 1 1 1 1 1 1 1 1
7 6 6 6 6 6 6 6 5 5 5 5 5 4 4 4 4 4 4 3 3 3 3 3 2 2 2 2 1 1 1 1 1 1 1 1 0 0 0 0 0 0 0 0
6 6 6 6 6 6 5 5 5 5 4 4 4 4 4 3 3 3 3 3 3 3 2 2 2 2 1 1 1 1 1 1 1 0 0 0 0 0 0 0 0 -0 -0 -0
5 5 5 5 5 5 5 5 4 4 4 4 4 3 3 3 3 3 3 2 2 2 2 2 2 1 1 1 1 1 1 1 0 0 0 0 0 0 0 -0 -0 -0 -0 -1
Wind_Speed
5 5 3 4 4 4 6 7 7 7 7 8 6 5 3 1 1 1 1 1 1 2 2 2 2 2 2 3 3 3 3 3 4 4 3 3 3 3 3 3 4 4 4 4
3 3 3 4 5 5 6 5 6 5 7 5 3 1 0 1 2 2 2 3 2 2 2 2 3 3 3 3 3 3 3 4 4 3 3 3 4 3 3 3 3 3 4 4
3 4 3 5 6 6 4 4 6 7 7 3 1 3 4 4 3 4 4 3 3 3 3 3 3 3 3 4 3 2 3 4 3 3 3 4 3 3 3 4 3 4 4 4
1 1 4 6 2 3 3 3 3 4 3 2 4 3 1 2 4 4 4 3 2 2 2 2 2 1 2 1 2 2 3 3 3 3 3 3 3 4 4 3 3 4 5 5
2 2 5 6 2 2 2 4 2 2 2 1 1 3 3 2 3 4 3 3 3 3 2 2 1 1 1 1 0 1 2 3 3 3 3 3 4 5 4 3 3 3 3 4
3 3 5 5 3 2 2 3 2 2 2 0 2 1 4 3 2 1 1 0 1 1 1 1 1 1 2 1 1 2 4 4 3 3 4 4 5 4 3 3 4 3 3 4
4 4 6 5 3 2 3 5 2 1 2 3 3 4 3 3 2 1 0 1 1 2 1 1 1 2 2 1 3 4 3 1 1 2 3 3 3 3 2 3 2 2 3 3
4 4 6 2 2 4 5 2 0 1 1 2 2 1 2 2 2 1 1 1 1 2 0 0 1 2 2 2 4 2 0 0 1 1 1 1 1 2 2 2 2 2 2 2
6 5 3 3 3 2 1 1 2 1 1 2 0 1 1 2 1 1 1 0 0 1 1 0 1 2 2 3 2 1 1 0 1 1 1 1 1 2 1 1 2 2 2 2
2 5 4 4 3 2 1 2 1 1 2 2 1 1 0 1 1 1 1 1 0 1 1 1 1 2 3 2 1 1 1 1 1 1 1 1 1 1 1 2 2 2 2 2
4 5 4 4 3 2 1 1 1 1 1 2 2 1 1 1 1 1 1 1 1 1 1 1 1 1 2 1 1 2 1 1 1 1 0 0 1 1 1 2 3 3 3 3
6 6 5 5 4 2 1 1 1 0 1 1 1 2 1 0 1 0 1 1 1 1 0 1 1 2 2 1 1 2 1 1 1 1 0 0 1 2 3 2 2 2 2 1
5 3 4 4 2 2 2 2 1 1 2 1 1 1 1 0 1 1 2 2 1 1 1 1 1 2 2 1 1 2 2 2 1 1 0 0 0 1 2 3 4 3 3 2
3 1 1 2 2 2 1 1 1 1 1 1 1 1 2 2 1 1 1 1 1 2 2 2 2 3 3 1 1 1 1 1 1 1 1 1 1 1 1 1 2 3 3 4
3 2 3 2 0 1 1 2 3 2 2 2 2 2 2 2 1 1 2 2 2 3 3 3 3 4 3 1 1 1 0 0 0 1 1 1 1 0 1 1 1 1 2 3
1 0 1 2 1 0 1 2 2 1 1 1 2 2 1 1 1 2 2 2 2 2 2 2 2 3 3 2 2 1 1 2 2 1 0 0 0 0 1 1 1 1 2 2
2 1 1 1 2 2 2 2 3 2 1 1 1 1 2 2 2 2 2 2 1 1 1 1 2 3 2 1 1 1 1 1 2 1 1 1 1 1 1 1 1 2 2 2
5 5 5 4 4 3 2 2 2 3 2 2 2 2 1 1 0 1 1 2 2 2 2 2 2 2 2 2 1 0 0 0 0 1 1 1 1 1 1 1 2 2 2 2
3 3 3 3 3 4 3 3 3 2 2 3 3 3 2 2 1 1 0 1 1 2 3 3 3 2 2 2 2 0 0 0 1 1 1 2 2 1 1 2 2 2 2 1
1 2 2 2 2 3 3 2 3 2 2 3 3 2 2 2 1 1 0 1 2 2 3 2 1 1 1 2 2 0 0 0 1 1 1 1 1 1 2 2 2 2 2 2
1 1 2 2 1 1 2 2 3 2 2 3 3 3 3 2 2 2 1 2 3 2 2 3 1 1 1 2 1 0 0 1 1 1 1 1 2 2 2 2 2 2 2 2
1 1 1 1 1 1 1 1 2 2 2 2 2 2 2 2 2 2 2 3 3 3 2 2 2 2 3 2 1 0 1 1 1 1 1 2 2 2 2 2 2 2 2 2
2 2 2 2 2 2 1 1 2 2 3 3 3 3 3 3 3 2 3 3 2 3 2 2 3 4 3 1 0 1 1 1 2 2 2 2 2 2 2 2 2 2 2 2
2 2 2 2 2 2 2 2 2 2 2 2 3 3 3 2 2 3 3 3 4 4 2 3 5 4 2 0 1 1 2 2 2 2 2 2 2 2 2 2 2 2 2 2
2 2 2 2 2 3 3 2 1 1 1 1 2 2 2 3 3 3 2 3 4 3 2 4 5 3 1 1 2 2 2 3 3 2 2 2 2 2 2 2 2 2 2 2
3 3 3 4 3 3 3 3 2 2 2 2 2 2 2 1 2 2 2 2 3 3 3 2 2 2 1 2 2 3 3 3 3 2 2 2 2 3 2 2 3 2 3 3
2 2 2 1 2 2 3 3 3 3 3 3 3 2 2 2 2 2 2 2 2 2 2 2 2 2 2 2 2 2 2 2 2 2 2 3 3 3 3 3 3 3 3 3
Wind_Direction
240 252 227 235 236 200 198 202 204 230 234 256 253 252 258 240 151 138 143 158 187 210 220 207 204 212 218 226 224 200 186 202 224 234 232 225 227 235 236 231 233 229 228 240
278 277 253 270 259 222 222 214 214 236 254 253 251 211 228 219 191 213 227 225 226 228 231 223 218 220 223 229 228 199 198 218 228 225 224 227 231 232 236 243 242 233 228 230
257 302 334 277 246 206 200 195 182 217 245 249 246 212 212 216 209 225 237 229 222 229 231 233 228 216 215 229 226 208 219 228 225 221 228 235 232 224 231 240 240 240 239 234
204 48 243 252 281 190 205 239 217 229 257 227 223 222 231 211 212 230 237 232 233 236 238 235 220 214 216 211 202 212 226 235 234 226 233 239 228 228 235 234 234 237 239 238
148 212 273 295 279 169 186 272 270 231 275 329 15 33 345 280 217 226 231 228 219 216 215 214 223 222 158 155 170 222 241 244 240 228 227 226 229 236 236 231 239 244 243 240
149 187 237 252 280 270 130 274 284 199 219 196 80 64 280 297 295 266 266 180 172 165 125 133 246 175 145 188 208 243 249 248 240 229 226 230 233 236 237 225 235 244 255 251
181 213 256 260 287 87 154 253 293 187 191 170 188 218 265 311 332 326 15 139 128 121 129 207 187 138 154 195 242 251 254 256 250 241 236 237 242 244 232 221 229 242 255 269
167 198 247 281 116 167 218 263 272 202 184 175 217 306 343 353 350 355 10 58 120 123 118 357 132 144 172 231 252 261 214 180 284 279 273 290 247 256 233 202 206 236 251 283
196 217 266 284 232 246 194 210 239 209 210 160 173 320 345 345 338 328 335 66 121 138 120 15 176 169 204 253 265 231 169 253 288 312 300 274 220 231 241 204 203 223 225 247
245 271 285 296 298 308 257 205 221 186 168 153 180 223 316 330 327 332 336 343 34 98 108 275 263 235 237 257 240 199 212 259 273 283 314 318 272 229 226 223 224 227 230 237
250 271 306 296 280 287 348 44 80 87 148 179 159 191 217 270 285 289 319 343 71 142 190 263 288 283 285 253 209 217 229 251 276 265 203 344 319 271 247 239 235 227 226 218
232 228 210 256 271 284 283 280 244 153 343 317 180 208 204 250 278 322 343 9 31 27 142 291 302 290 296 263 195 191 212 245 240 223 189 195 320 335 335 333 328 315 296 248
237 245 225 240 259 264 243 248 246 203 198 225 296 171 153 52 41 46 30 23 20 4 8 13 351 325 312 286 196 195 220 228 213 207 214 239 278 289 322 344 354 350 336 323
243 196 250 246 242 266 293 330 78 72 55 79 81 81 83 55 55 53 12 337 10 35 28 27 19 341 321 293 231 236 240 236 213 207 222 227 232 270 278 290 333 336 332 324
283 222 215 241 283 8 35 78 83 67 54 48 71 85 79 75 63 359 347 16 58 51 35 33 27 355 354 34 73 44 27 257 222 217 222 240 258 316 331 293 288 318 335 334
279 55 133 127 151 299 73 112 130 151 119 86 77 76 69 91 71 33 22 48 76 49 12 21 8 342 353 37 59 44 10 360 16 28 14 349 326 326 313 300 292 298 301 300
164 195 193 196 223 234 215 194 180 175 152 131 109 87 81 78 62 39 13 14 70 67 2 357 329 340 3 25 64 30 13 354 4 1 309 264 264 260 257 262 268 276 280 295
203 208 203 199 199 200 202 189 181 178 180 179 130 106 109 113 118 312 324 353 26 15 349 327 324 357 6 4 25 22 27 355 322 300 295 281 277 262 255 254 267 279 297 309
201 200 202 203 191 178 184 192 199 195 177 161 159 170 194 216 227 255 322 33 10 322 312 314 333 12 354 340 3 34 46 338 328 319 316 318 315 297 277 268 272 276 283 290
132 143 149 161 169 170 183 190 177 173 179 172 168 173 192 228 227 206 171 269 256 265 283 302 316 319 314 317 351 16 303 265 273 288 305 303 286 284 280 281 289 290 287 283
109 118 134 149 172 182 178 174 170 182 189 176 182 200 213 225 221 206 206 283 292 297 300 306 317 292 294 312 320 330 271 264 260 261 270 281 283 275 271 277 284 285 285 289
154 147 162 164 165 199 205 170 177 188 191 199 206 204 208 226 228 235 241 242 264 288 298 284 283 299 313 326 328 297 283 274 273 275 274 274 276 277 274 273 274 283 286 285
195 197 198 198 198 207 219 191 189 192 207 216 215 214 220 229 219 214 264 267 265 281 288 266 285 299 307 334 296 268 272 270 268 269 272 271 272 273 272 273 275 283 290 294
212 214 214 202 161 160 195 222 216 217 224 233 230 224 218 226 253 243 234 263 272 277 272 275 283 286 296 322 266 258 256 260 262 260 263 267 267 271 271 273 279 284 288 294
219 220 208 188 195 211 211 205 202 234 236 248 253 247 234 217 229 252 252 255 261 270 277 281 284 282 288 265 260 261 258 255 255 252 253 259 262 263 258 259 266 272 278 280
217 217 225 225 215 207 198 193 205 226 226 242 264 258 248 244 240 249 252 250 249 266 272 273 274 273 262 260 264 260 256 264 271 261 252 250 252 252 253 256 267 272 280 284
218 219 223 244 243 210 197 197 208 224 223 226 245 254 246 248 250 253 255 258 261 267 270 270 265 262 259 260 263 261 250 246 245 244 247 251 255 255 257 263 267 274 283 288
Height
1504 1501 1501 1501 1501 1502 1506 1507 1512 1509 1507 1500 1496 1495 1494 1494 1494 1494 1494 1495 1495 1496 1496 1497 1497 1498 1499 1500 1501 1502 1503 1503 1504 1505 1505 1506 1506 1507 1507 1507 1508 1508 1508 1508
1504 1500 1500 1501 1498 1499 1500 1501 1503 1503 1501 1494 1493 1493 1493 1493 1493 1494 1493 1494 1494 1494 1494 1494 1495 1496 1497 1497 1498 1499 1499 1500 1501 1501 1502 1502 1502 1503 1503 1503 1504 1504 1504 1504
1510 1503 1501 1505 1497 1496 1496 1495 1497 1500 1496 1492 1492 1491 1491 1491 1492 1492 1492 1492 1492 1492 1492 1492 1493 1493 1494 1495 1495 1496 1497 1497 1498 1498 1498 1499 1499 1499 1499 1499 1500 1500 1500 1500
1511 1508 1512 1500 1490 1490 1491 1491 1491 1490 1490 1489 1489 1489 1489 1490 1490 1490 1490 1490 1490 1490 1490 1490 1491 1491 1492 1492 1493 1493 1494 1494 1495 1495 1495 1496 1496 1496 1496 1496 1496 1496 1495 1495
1514 1513 1507 1497 1490 1490 1492 1492 1490 1490 1489 1488 1488 1488 1488 1488 1488 1488 1488 1488 1488 1488 1488 1488 1488 1489 1490 1490 1490 1491 1491 1491 1492 1492 1492 1492 1492 1492 1492 1492 1492 1492 1491 1491
1513 1511 1511 1497 1488 1486 1489 1493 1487 1487 1488 1488 1488 1491 1489 1486 1486 1486 1486 1486 1486 1486 1486 1486 1486 1487 1487 1487 1487 1488 1488 1488 1489 1489 1489 1489 1489 1489 1489 1488 1488 1488 1487 1487
1510 1509 1502 1491 1487 1486 1497 1495 1486 1485 1486 1486 1487 1487 1487 1485 1484 1484 1484 1484 1484 1484 1484 1484 1484 1484 1484 1485 1485 1485 1485 1486 1486 1486 1486 1486 1485 1485 1485 1484 1484 1483 1483 1483
1509 1509 1503 1487 1487 1489 1489 1485 1484 1484 1484 1484 1485 1485 1484 1483 1483 1482 1482 1482 1482 1481 1481 1482 1482 1482 1482 1482 1483 1483 1483 1483 1483 1482 1482 1482 1481 1481 1481 1480 1480 1479 1479 1479
1499 1497 1489 1486 1485 1485 1484 1484 1483 1483 1483 1484 1483 1483 1483 1482 1482 1481 1481 1480 1480 1479 1479 1479 1480 1480 1480 1480 1481 1480 1480 1480 1480 1479 1479 1478 1478 1478 1477 1477 1476 1476 1475 1475
1494 1488 1486 1485 1483 1483 1483 1482 1482 1482 1482 1482 1482 1482 1482 1481 1480 1480 1479 1478 1478 1477 1477 1477 1478 1478 1478 1478 1478 1478 1477 1477 1477 1476 1475 1475 1475 1474 1473 1473 1472 1472 1472 1471
1491 1486 1484 1483 1482 1481 1481 1481 1481 1481 1481 1481 1481 1481 1480 1480 1479 1478 1478 1477 1476 1475 1475 1475 1476 1476 1476 1476 1476 1475 1475 1474 1474 1473 1472 1472 1471 1471 1470 1469 1469 1469 1468 1468
1486 1482 1482 1481 1480 1480 1479 1479 1479 1479 1479 1480 1480 1479 1479 1478 1478 1477 1476 1475 1474 1474 1473 1473 1473 1473 1473 1473 1473 1472 1471 1471 1471 1470 1469 1469 1468 1467 1467 1466 1466 1465 1465 1465
1479 1478 1478 1478 1478 1478 1478 1478 1478 1478 1478 1477 1478 1478 1477 1476 1476 1475 1474 1473 1472 1472 1471 1471 1471 1470 1470 1470 1469 1469 1468 1468 1467 1466 1466 1465 1464 1463 1462 1462 1462 1462 1461 1461
1476 1476 1476 1475 1476 1476 1476 1476 1476 1476 1476 1476 1476 1475 1475 1474 1474 1473 1472 1472 1471 1470 1470 1469 1468 1467 1466 1466 1466 1465 1465 1464 1464 1463 1463 1462 1461 1460 1459 1458 1458 1457 1458 1457
1474 1474 1474 1473 1473 1473 1474 1474 1474 1473 1473 1474 1474 1474 1473 1473 1472 1471 1471 1470 1469 1469 1468 1467 1465 1464 1463 1463 1462 1462 1461 1460 1460 1460 1459 1459 1458 1457 1456 1456 1455 1454 1454 1454
1471 1471 1471 1471 1471 1471 1472 1472 1472 1472 1472 1472 1472 1472 1472 1472 1471 1470 1469 1469 1467 1467 1466 1465 1464 1463 1461 1460 1459 1459 1458 1458 1458 1457 1456 1455 1455 1454 1453 1453 1452 1452 1451 1451
1468 1468 1468 1469 1469 1469 1470 1470 1470 1471 1471 1471 1471 1471 1470 1470 1469 1468 1468 1467 1466 1466 1465 1463 1462 1461 1460 1458 1458 1457 1456 1455 1455 1454 1453 1453 1452 1451 1450 1450 1449 1448 1448 1447
1465 1466 1466 1467 1467 1467 1467 1468 1469 1469 1469 1469 1469 1469 1469 1468 1467 1467 1466 1465 1464 1464 1463 1462 1461 1459 1458 1457 1455 1454 1454 1453 1452 1451 1450 1449 1448 1448 1447 1446 1446 1445 1444 1444
1462 1463 1464 1464 1465 1465 1466 1466 1467 1467 1467 1467 1467 1467 1467 1466 1466 1465 1464 1463 1462 1461 1461 1460 1459 1457 1456 1454 1453 1452 1451 1450 1449 1448 1447 1446 1446 1445 1444 1443 1442 1442 1441 1440
1459 1460 1461 1462 1463 1463 1464 1464 1465 1465 1465 1465 1465 1464 1464 1464 1463 1463 1462 1461 1460 1459 1459 1458 1456 1455 1453 1452 1451 1449 1448 1447 1446 1445 1444 1443 1442 1441 1441 1440 1439 1438 1438 1437
1458 1458 1459 1460 1460 1461 1462 1462 1462 1462 1462 1462 1462 1462 1462 1461 1461 1460 1459 1458 1458 1457 1456 1455 1453 1452 1450 1449 1448 1447 1445 1444 1443 1442 1441 1440 1439 1438 1438 1437 1436 1436 1435 1434
1456 1457 1457 1458 1458 1459 1459 1460 1460 1460 1460 1460 1460 1459 1459 1458 1458 1457 1457 1456 1455 1454 1453 1452 1450 1449 1448 1446 1445 1444 1442 1441 1440 1439 1438 1437 1436 1435 1435 1435 1434 1433 1432 1432
1454 1455 1455 1455 1456 1456 1457 1458 1458 1458 1457 1457 1457 1457 1456 1456 1455 1454 1453 1453 1452 1451 1450 1449 1448 1446 1445 1443 1442 1441 1439 1438 1437 1436 1435 1434 1433 1433 1432 1432 1431 1430 1429 1429
1452 1452 1453 1453 1453 1454 1454 1454 1454 1454 1454 1454 1454 1454 1453 1453 1452 1451 1451 1450 1449 1448 1447 1446 1445 1443 1442 1440 1438 1437 1436 1435 1434 1433 1432 1431 1431 1430 1429 1429 1428 1427 1427 1426
1450 1450 1450 1450 1450 1450 1451 1451 1451 1451 1451 1451 1450 1450 1450 1449 1449 1448 1447 1446 1445 1444 1443 1442 1441 1439 1438 1437 1435 1434 1433 1432 1431 1430 1429 1428 1427 1427 1426 1426 1425 1425 1424 1423
1447 1447 1447 1447 1447 1447 1447 1447 1447 1447 1447 1447 1446 1446 1446 1445 1445 1444 1443 1442 1441 1440 1439 1438 1437 1436 1434 1433 1431 1430 1429 1428 1427 1426 1426 1425 1424 1424 1423 1423 1422 1421 1421 1420
1443 1443 1443 1443 1443 1444 1444 1444 1444 1443 1443 1443 1442 1442 1442 1441 1440 1440 1439 1438 1437 1436 1435 1434 1433 1432 1430 1429 1427 1426 1425 1425 1424 1423 1422 1422 1421 1421 1420 1419 1419 1418 1417 1416